Simultaneous Nadir Overpasses (SNOs) Predictions

Prediction of SNOs between NOAA-20 and METOP-B Satellite Orbit:

Table of predicted SNOs for the next 14.0 days since TLE Epoch: 12/26/2020
Index Date (NOAA-20) Time (NOAA-20) Lat,Lon (NOAA-20) SZA (NOAA-20 ) Date (METOP-B) Time (METOP-B) Lat,Lon (METOP-B) SZA (METOP-B ) Distance(km) Time Diff (sec)
1 12/29/2020 17:14:05 -73.49, 91.60 83.19 12/29/2020 17:15:11 -73.44, 94.60 83.37 95.06 66
2 12/29/2020 18:04:47 73.29,-100.64 96.60 12/29/2020 18:05:55 73.25, -98.50 96.46 68.47 68
3 12/29/2020 18:55:29 -73.20, 66.89 83.51 12/29/2020 18:56:39 -73.12, 68.55 83.67 54.19 70
4 12/29/2020 19:46:11 72.99,-125.36 96.27 12/29/2020 19:47:23 72.93,-124.54 96.16 27.77 72
5 12/29/2020 20:36:53 -72.90, 42.15 83.84 12/29/2020 20:38:06 -72.85, 42.63 83.92 16.52 73
6 12/29/2020 21:27:36 72.74,-150.21 96.00 12/29/2020 21:28:48 72.75,-150.24 96.00 1.56 72
7 12/29/2020 22:18:20 -72.75, 17.09 84.00 12/29/2020 22:19:30 -72.73, 17.04 84.03 2.61 70
8 12/29/2020 23:09:06 72.75,-175.60 96.00 12/29/2020 23:10:10 72.74,-175.62 95.97 1.48 64
9 12/29/2020 23:59:50 -72.76, -8.30 84.00 12/30/2020 00:00:51 -72.76, -8.23 84.01 2.35 61
10 12/30/2020 00:50:36 72.75, 159.02 96.00 12/30/2020 00:51:31 72.77, 159.11 96.00 3.41 55
11 12/30/2020 01:41:20 -72.76, -33.68 84.00 12/30/2020 01:42:13 -72.75, -33.61 84.03 2.87 53
12 12/30/2020 02:32:06 72.76, 133.64 96.00 12/30/2020 02:32:53 72.75, 133.73 95.98 3.20 47
13 12/30/2020 03:22:49 -72.71, -58.96 84.06 12/30/2020 03:23:35 -72.73, -58.99 84.05 1.69 46
14 12/30/2020 04:13:35 72.71, 108.36 95.94 12/30/2020 04:14:15 72.73, 108.35 95.96 2.22 40
15 12/30/2020 05:04:19 -72.72, -84.34 84.06 12/30/2020 05:04:57 -72.71, -84.37 84.07 1.40 38
16 12/30/2020 05:55:05 72.71, 82.97 95.94 12/30/2020 05:55:37 72.71, 82.97 95.93 0.40 32
17 12/30/2020 06:45:49 -72.72,-109.73 84.06 12/30/2020 06:46:18 -72.74,-109.64 84.05 3.42 29
18 12/30/2020 07:36:35 72.72, 57.59 95.94 12/30/2020 07:36:59 72.69, 57.59 95.91 3.00 24
19 12/30/2020 08:27:19 -72.73,-135.11 84.06 12/30/2020 08:27:40 -72.72,-135.02 84.07 3.09 21
20 12/30/2020 09:18:04 72.67, 32.31 95.89 12/30/2020 09:18:21 72.67, 32.22 95.89 3.19 17
21 12/30/2020 10:08:48 -72.68,-160.39 84.11 12/30/2020 10:09:02 -72.70,-160.40 84.09 2.41 14
22 12/30/2020 10:59:34 72.68, 6.93 95.89 12/30/2020 10:59:42 72.71, 6.94 95.91 3.14 8
23 12/30/2020 11:50:18 -72.69, 174.23 84.11 12/30/2020 11:50:24 -72.68, 174.22 84.11 0.19 6
24 12/30/2020 12:41:04 72.68, -18.46 95.89 12/30/2020 12:41:04 72.69, -18.44 95.89 0.79 0
25 12/30/2020 13:31:48 -72.69, 148.84 84.11 12/30/2020 13:31:46 -72.67, 148.85 84.13 2.74 2
26 12/30/2020 14:22:34 72.69, -43.84 95.89 12/30/2020 14:22:26 72.67, -43.82 95.87 2.24 8
27 12/30/2020 15:13:17 -72.64, 123.56 84.16 12/30/2020 15:13:08 -72.65, 123.47 84.16 3.19 9
28 12/30/2020 16:04:03 72.64, -69.12 95.84 12/30/2020 16:03:48 72.65, -69.19 95.85 2.69 15
29 12/30/2020 16:54:47 -72.65, 98.18 84.16 12/30/2020 16:54:29 -72.68, 98.19 84.13 3.41 18
30 12/30/2020 17:45:33 72.64, -94.50 95.84 12/30/2020 17:45:10 72.63, -94.57 95.83 2.87 23
31 12/30/2020 18:36:17 -72.65, 72.80 84.16 12/30/2020 18:35:51 -72.66, 72.82 84.15 1.02 26
32 12/30/2020 19:27:03 72.65,-119.89 95.84 12/30/2020 19:26:31 72.66,-119.85 95.85 1.90 32
33 12/30/2020 20:17:47 -72.66, 47.41 84.16 12/30/2020 20:17:13 -72.64, 47.44 84.17 1.93 34
34 12/30/2020 21:08:33 72.65,-145.27 95.84 12/30/2020 21:07:53 72.64,-145.23 95.83 1.89 40
35 12/30/2020 21:59:16 -72.61, 22.13 84.22 12/30/2020 21:58:35 -72.62, 22.06 84.20 2.78 41
36 12/30/2020 22:50:02 72.61,-170.55 95.78 12/30/2020 22:49:15 72.62,-170.60 95.81 2.59 47
37 12/30/2020 23:40:46 -72.62, -3.25 84.22 12/30/2020 23:39:57 -72.60, -3.32 84.22 2.61 49
38 12/31/2020 00:31:32 72.61, 164.07 95.78 12/31/2020 00:30:37 72.61, 164.02 95.79 1.82 55
39 12/31/2020 01:22:16 -72.62, -28.63 84.22 12/31/2020 01:21:18 -72.64, -28.59 84.19 2.24 58
40 12/31/2020 02:13:02 72.62, 138.68 95.78 12/31/2020 02:11:58 72.64, 138.74 95.81 3.02 64
41 12/31/2020 03:03:46 -72.62, -54.02 84.22 12/31/2020 03:02:40 -72.62, -53.97 84.22 1.71 66
42 12/31/2020 03:54:32 72.62, 113.30 95.78 12/31/2020 03:53:20 72.62, 113.36 95.79 2.17 72
43 12/31/2020 04:45:15 -72.58, -79.30 84.27 12/31/2020 04:44:02 -72.60, -79.35 84.24 2.86 73
44 12/31/2020 05:35:58 72.42, 88.33 95.56 12/31/2020 05:34:45 72.45, 87.68 95.63 21.98 73
45 12/31/2020 06:26:41 -72.38,-104.27 84.49 12/31/2020 06:25:28 -72.38,-105.13 84.44 29.01 73
46 12/31/2020 07:17:22 72.12, 63.54 95.23 12/31/2020 07:16:13 72.12, 61.70 95.33 63.04 69
47 12/31/2020 08:08:05 -72.08,-129.06 84.82 12/31/2020 08:06:56 -72.05,-131.10 84.74 70.10 69



Historial Predications of SNOs between NOAA-20 and METOP-B
